Time,TemperatureF,DewpointF,PressureIn,WindDirection,WindDirectionDegrees,WindSpeedMPH,WindSpeedGustMPH,Humidity,HourlyPrecipIn,Conditions,Clouds,dailyrainin,SoftwareType,DateUTC
2013-03-22 00:04:00,35.0,-99.9,-100.00,North,354,4.0,-999.0,-999,-99.99,,,0.00,,2013-03-22 04:04:00,
2013-03-22 00:13:00,35.0,-99.9,-100.00,North,354,4.0,-999.0,-999,-99.99,,,0.00,,2013-03-22 04:13:00,
2013-03-22 00:23:00,35.0,-99.9,-100.00,North,354,4.0,-999.0,-999,-99.99,,,0.00,,2013-03-22 04:23:00,
2013-03-22 08:12:00,32.0,-99.9,-100.00,SW,215,1.0,-999.0,-999,-99.99,,,0.00,,2013-03-22 12:12:00,
2013-03-22 08:22:00,32.0,-99.9,-100.00,SSW,204,1.0,-999.0,-999,-99.99,,,0.00,,2013-03-22 12:22:00,
2013-03-22 08:32:00,32.0,-99.9,-100.00,SSW,204,1.0,-999.0,-999,-99.99,,,0.00,,2013-03-22 12:32:00,
2013-03-22 08:42:00,32.0,-99.9,-100.00,SSW,204,1.0,-999.0,-999,-99.99,,,0.00,,2013-03-22 12:42:00,
2013-03-22 08:52:00,33.0,-99.9,-100.00,NE,43,3.0,-999.0,-999,-99.99,,,0.00,,2013-03-22 12:52:00,
2013-03-22 09:02:00,33.0,-99.9,-100.00,NE,43,3.0,-999.0,-999,-99.99,,,0.00,,2013-03-22 13:02:00,
2013-03-22 09:13:00,33.0,-99.9,-100.00,NE,43,3.0,-999.0,-999,-99.99,,,0.00,,2013-03-22 13:13:00,
2013-03-22 09:22:00,33.0,-99.9,-100.00,NE,50,3.0,-999.0,-999,-99.99,,,0.00,,2013-03-22 13:22:00,
2013-03-22 09:32:00,33.0,-99.9,-100.00,NE,50,3.0,-999.0,-999,-99.99,,,0.00,,2013-03-22 13:32:00,
2013-03-22 09:42:00,33.0,-99.9,-100.00,NE,50,3.0,-999.0,-999,-99.99,,,0.00,,2013-03-22 13:42:00,
2013-03-22 09:53:00,33.0,-99.9,-100.00,NE,56,5.0,-999.0,-999,-99.99,,,0.00,,2013-03-22 13:53:00,
2013-03-22 10:03:00,33.0,-99.9,-100.00,NE,56,5.0,-999.0,-999,-99.99,,,0.00,,2013-03-22 14:03:00,
2013-03-22 10:12:00,33.0,-99.9,-100.00,NE,56,5.0,-999.0,-999,-99.99,,,0.00,,2013-03-22 14:12:00,
2013-03-22 10:22:00,33.0,-99.9,-100.00,ENE,67,4.0,-999.0,-999,-99.99,,,0.00,,2013-03-22 14:22:00,
2013-03-22 10:32:00,33.0,-99.9,-100.00,ENE,67,4.0,-999.0,-999,-99.99,,,0.00,,2013-03-22 14:32:00,
2013-03-22 10:43:00,33.0,-99.9,-100.00,ENE,67,4.0,-999.0,-999,-99.99,,,0.00,,2013-03-22 14:43:00,
2013-03-22 10:52:00,33.0,-99.9,-100.00,ENE,65,4.0,-999.0,-999,-99.99,,,0.00,,2013-03-22 14:52:00,
2013-03-22 11:03:00,33.0,-99.9,-100.00,ENE,65,4.0,-999.0,-999,-99.99,,,0.00,,2013-03-22 15:03:00,
2013-03-22 11:12:00,33.0,-99.9,-100.00,ENE,65,4.0,-999.0,-999,-99.99,,,0.00,,2013-03-22 15:12:00,
2013-03-22 11:22:00,33.0,-99.9,-100.00,ENE,75,5.0,-999.0,-999,-99.99,,,0.00,,2013-03-22 15:22:00,
2013-03-22 11:33:00,33.0,-99.9,-100.00,ENE,75,5.0,-999.0,-999,-99.99,,,0.00,,2013-03-22 15:33:00,
2013-03-22 11:43:00,33.0,-99.9,-100.00,ENE,75,5.0,-999.0,-999,-99.99,,,0.00,,2013-03-22 15:43:00,
2013-03-22 12:23:00,34.0,-99.9,-100.00,ENE,65,3.0,-999.0,-999,-99.99,,,0.00,,2013-03-22 16:23:00,
2013-03-22 12:33:00,34.0,-99.9,-100.00,ENE,65,3.0,-999.0,-999,-99.99,,,0.00,,2013-03-22 16:33:00,
2013-03-22 12:42:00,34.0,-99.9,-100.00,ENE,65,3.0,-999.0,-999,-99.99,,,0.00,,2013-03-22 16:42:00,
2013-03-22 12:53:00,36.0,-99.9,-100.00,NE,51,3.0,-999.0,-999,-99.99,,,0.00,,2013-03-22 16:53:00,
2013-03-22 13:12:00,37.0,-99.9,-100.00,NNE,30,4.0,-999.0,-999,-99.99,,,0.00,,2013-03-22 17:12:00,
2013-03-22 13:23:00,38.0,-99.9,-100.00,NE,43,4.0,-999.0,-999,-99.99,,,0.00,,2013-03-22 17:23:00,
2013-03-22 13:33:00,38.0,-99.9,-100.00,NE,43,4.0,-999.0,-999,-99.99,,,0.00,,2013-03-22 17:33:00,
2013-03-22 13:43:00,39.0,-99.9,-100.00,NNW,347,2.0,-999.0,-999,-99.99,,,0.00,,2013-03-22 17:43:00,
2013-03-22 13:53:00,40.0,-99.9,-100.00,South,186,2.0,-999.0,-999,-99.99,,,0.00,,2013-03-22 17:53:00,
2013-03-22 14:02:00,40.0,-99.9,-100.00,South,186,2.0,-999.0,-999,-99.99,,,0.00,,2013-03-22 18:02:00,
2013-03-22 14:13:00,40.0,-99.9,-100.00,SW,215,4.0,-999.0,-999,-99.99,,,0.00,,2013-03-22 18:13:00,
2013-03-22 14:22:00,40.0,-99.9,-100.00,SW,222,4.0,-999.0,-999,-99.99,,,0.00,,2013-03-22 18:22:00,
2013-03-22 14:33:00,40.0,-99.9,-100.00,SW,222,4.0,-999.0,-999,-99.99,,,0.00,,2013-03-22 18:33:00,
2013-03-22 14:42:00,41.0,-99.9,-100.00,South,187,4.0,-999.0,-999,-99.99,,,0.00,,2013-03-22 18:42:00,
2013-03-22 14:52:00,41.0,-99.9,-100.00,SW,218,4.0,-999.0,-999,-99.99,,,0.00,,2013-03-22 18:52:00,
2013-03-22 15:02:00,41.0,-99.9,-100.00,SW,218,4.0,-999.0,-999,-99.99,,,0.00,,2013-03-22 19:02:00,
2013-03-22 15:12:00,41.0,-99.9,-100.00,SW,224,3.0,-999.0,-999,-99.99,,,0.00,,2013-03-22 19:12:00,
2013-03-22 15:22:00,41.0,-99.9,-100.00,SW,232,4.0,-999.0,-999,-99.99,,,0.00,,2013-03-22 19:22:00,
2013-03-22 15:33:00,41.0,-99.9,-100.00,SW,232,4.0,-999.0,-999,-99.99,,,0.00,,2013-03-22 19:33:00,
2013-03-22 15:43:00,42.0,-99.9,-100.00,SSW,203,3.0,-999.0,-999,-99.99,,,0.00,,2013-03-22 19:43:00,
2013-03-22 15:52:00,42.0,-99.9,-100.00,SSW,207,3.0,-999.0,-999,-99.99,,,-99.99,,2013-03-22 19:52:00,
2013-03-22 16:02:00,42.0,-99.9,-100.00,SSW,207,3.0,-999.0,-999,-99.99,,,-99.99,,2013-03-22 20:02:00,
2013-03-22 16:13:00,42.0,-99.9,-100.00,WSW,246,3.0,-999.0,-999,-99.99,,,0.00,,2013-03-22 20:13:00,
2013-03-22 16:22:00,43.0,-99.9,-100.00,SW,231,4.0,-999.0,-999,-99.99,,,0.00,,2013-03-22 20:22:00,
2013-03-22 16:32:00,43.0,-99.9,-100.00,SW,231,4.0,-999.0,-999,-99.99,,,0.00,,2013-03-22 20:32:00,
2013-03-22 16:43:00,43.0,-99.9,-100.00,SSW,211,3.0,-999.0,-999,-99.99,,,0.00,,2013-03-22 20:43:00,
2013-03-22 16:52:00,43.0,-99.9,-100.00,West,263,3.0,-999.0,-999,-99.99,,,0.00,,2013-03-22 20:52:00,
2013-03-22 17:00:00,44.0,-99.9,-100.00,SW,232,3.0,-999.0,-999,-99.99,,,0.00,,2013-03-22 21:00:00,
2013-03-22 17:03:00,43.0,-99.9,-100.00,West,263,3.0,-999.0,-999,-99.99,,,0.00,,2013-03-22 21:03:00,
2013-03-22 17:12:00,43.0,-99.9,-100.00,WSW,240,2.0,-999.0,-999,-99.99,,,0.00,,2013-03-22 21:12:00,
2013-03-22 17:22:00,44.0,-99.9,-100.00,SW,227,3.0,-999.0,-999,-99.99,,,0.00,,2013-03-22 21:22:00,
2013-03-22 17:33:00,44.0,-99.9,-100.00,SW,227,3.0,-999.0,-999,-99.99,,,0.00,,2013-03-22 21:33:00,
2013-03-22 17:43:00,44.0,-99.9,-100.00,SW,232,3.0,-999.0,-999,-99.99,,,0.00,,2013-03-22 21:43:00,
2013-03-22 17:53:00,44.0,-99.9,-100.00,SW,232,3.0,-999.0,-999,-99.99,,,0.00,,2013-03-22 21:53:00,
2013-03-22 18:13:00,44.0,-99.9,-100.00,SW,232,2.0,-999.0,-999,-99.99,,,0.00,,2013-03-22 22:13:00,
2013-03-22 18:23:00,44.0,-99.9,-100.00,SSW,212,2.0,-999.0,-999,-99.99,,,0.00,,2013-03-22 22:23:00,
2013-03-22 18:32:00,44.0,-99.9,-100.00,SSW,212,2.0,-999.0,-999,-99.99,,,0.00,,2013-03-22 22:32:00,
2013-03-22 18:43:00,44.0,-99.9,-100.00,WNW,298,2.0,-999.0,-999,-99.99,,,0.00,,2013-03-22 22:43:00,
2013-03-22 18:53:00,44.0,-99.9,-100.00,NW,311,3.0,-999.0,-999,-99.99,,,0.00,,2013-03-22 22:53:00,
2013-03-22 19:02:00,44.0,-99.9,-100.00,NW,311,3.0,-999.0,-999,-99.99,,,0.00,,2013-03-22 23:02:00,
2013-03-22 19:12:00,44.0,-99.9,-100.00,NNW,338,2.0,-999.0,-999,-99.99,,,0.00,,2013-03-22 23:12:00,
2013-03-22 19:23:00,44.0,-99.9,-100.00,NNW,329,3.0,-999.0,-999,-99.99,,,0.00,,2013-03-22 23:23:00,
2013-03-22 19:33:00,44.0,-99.9,-100.00,NNW,329,3.0,-999.0,-999,-99.99,,,0.00,,2013-03-22 23:33:00,
2013-03-22 19:42:00,44.0,-99.9,-100.00,NW,319,2.0,-999.0,-999,-99.99,,,0.00,,2013-03-22 23:42:00,
2013-03-22 19:52:00,44.0,-99.9,-100.00,WNW,295,1.0,-999.0,-999,-99.99,,,0.00,,2013-03-22 23:52:00,
2013-03-22 20:02:00,44.0,-99.9,-100.00,WNW,295,1.0,-999.0,-999,-99.99,,,0.00,,2013-03-23 00:02:00,
2013-03-22 20:12:00,44.0,-99.9,-100.00,WNW,282,0.0,-999.0,-999,-99.99,,,0.00,,2013-03-23 00:12:00,
2013-03-22 20:23:00,44.0,-99.9,-100.00,West,264,1.0,-999.0,-999,-99.99,,,0.00,,2013-03-23 00:23:00,
2013-03-22 20:33:00,44.0,-99.9,-100.00,West,264,1.0,-999.0,-999,-99.99,,,0.00,,2013-03-23 00:33:00,
2013-03-22 20:42:00,44.0,-99.9,-100.00,WNW,292,1.0,-999.0,-999,-99.99,,,0.00,,2013-03-23 00:42:00,
2013-03-22 20:52:00,44.0,-99.9,-100.00,WNW,295,1.0,-999.0,-999,-99.99,,,0.00,,2013-03-23 00:52:00,
2013-03-22 21:04:00,44.0,-99.9,-100.00,WNW,295,1.0,-999.0,-999,-99.99,,,0.00,,2013-03-23 01:04:00,
2013-03-22 21:12:00,44.0,-99.9,-100.00,NW,325,1.0,-999.0,-999,-99.99,,,0.00,,2013-03-23 01:12:00,
2013-03-22 21:22:00,44.0,-99.9,-100.00,NW,321,2.0,-999.0,-999,-99.99,,,0.00,,2013-03-23 01:22:00,
2013-03-22 21:33:00,44.0,-99.9,-100.00,NW,321,2.0,-999.0,-999,-99.99,,,0.00,,2013-03-23 01:33:00,
2013-03-22 21:43:00,44.0,-99.9,-100.00,NW,306,2.0,-999.0,-999,-99.99,,,0.00,,2013-03-23 01:43:00,
2013-03-22 21:53:00,43.0,-99.9,-100.00,NW,315,1.0,-999.0,-999,-99.99,,,0.00,,2013-03-23 01:53:00,
2013-03-22 22:02:00,43.0,-99.9,-100.00,NW,315,1.0,-999.0,-999,-99.99,,,0.00,,2013-03-23 02:02:00,
2013-03-22 22:13:00,44.0,-99.9,-100.00,SW,224,1.0,-999.0,-999,-99.99,,,0.00,,2013-03-23 02:13:00,
2013-03-22 22:23:00,43.0,-99.9,-100.00,East,87,1.0,-999.0,-999,-99.99,,,0.00,,2013-03-23 02:23:00,
2013-03-22 22:32:00,43.0,-99.9,-100.00,East,87,1.0,-999.0,-999,-99.99,,,0.00,,2013-03-23 02:32:00,
2013-03-22 22:43:00,44.0,-99.9,-100.00,NNW,336,2.0,-999.0,-999,-99.99,,,0.00,,2013-03-23 02:43:00,
2013-03-22 22:52:00,44.0,-99.9,-100.00,NNW,347,1.0,-999.0,-999,-99.99,,,-99.99,,2013-03-23 02:52:00,
2013-03-22 23:03:00,44.0,-99.9,-100.00,NNW,347,1.0,-999.0,-999,-99.99,,,-99.99,,2013-03-23 03:03:00,
2013-03-22 23:12:00,43.0,-99.9,-100.00,NW,305,1.0,-999.0,-999,-99.99,,,0.00,,2013-03-23 03:12:00,
2013-03-22 23:23:00,43.0,-99.9,-100.00,WNW,282,1.0,-999.0,-999,-99.99,,,0.00,,2013-03-23 03:23:00,
2013-03-22 23:34:00,43.0,-99.9,-100.00,WNW,282,1.0,-999.0,-999,-99.99,,,0.00,,2013-03-23 03:34:00,
2013-03-22 23:44:00,43.0,-99.9,-100.00,South,191,1.0,-999.0,-999,-99.99,,,0.00,,2013-03-23 03:44:00,
2013-03-22 23:54:00,43.0,-99.9,-100.00,NW,321,1.0,-999.0,-999,-99.99,,,-99.99,,2013-03-23 03:54:00,